Weather in Kigbaevo

Russia / Udmurt Republic     56°21′45″N   53°37′54″E
temp.,
°C
wind,
m/s
gust,
m/s
humid.,
%
clouds,
%
prec.,
mm/h
press.,
hPa
HPBL,
m
14 may, fri
fri1401:00+17sse22575 0.0 102416
04:00+16s335979 0.0 102520
07:00+19sse36545 0.0 1025166
10:00+24s454080 0.0 1024626
13:00+27s56328 0.0 10231541
16:00+27ssw67334 0.0 10221674
19:00+24s49495 0.0 1021198
22:00+20s4125699 0.0 1021191
15 may, sat
sat1501:00+18ssw413560 0.0 1021234
04:00+17ssw4106099 0.0 1021172
07:00+19sw3659100 0.0 1021198
10:00+24ssw454389 0.0 1021603
13:00+27ssw683287 0.0 10201135
16:00+28sw6934100 0.0 10201289
19:00+24sw3849100 0.0 1019138
22:00+20ssw4125430 0.0 1019179
16 may, sun
sun1601:00+18ssw355613 0.0 101967
04:00+17sw345620 0.0 102043
07:00+20ssw375324 0.0 1020176
10:00+26ssw583744 0.0 1020620
13:00+29sw682832 0.0 10192354
16:00+30sw68295 0.0 10183048
19:00+25sw354654 0.0 101874
22:00+21s345197 0.0 101748
17 may, mon
mon1701:00+19ssw4751100 0.0 101799
04:00+17wsw3757100 0.0 1018100
07:00+20sw3859100 0.0 1018207
10:00+25wsw4643100 0.0 1019607
13:00+28wsw573445 0.0 10181491
16:00+29w58335 0.0 10182153
19:00+25w34495 0.0 101763
22:00+21w225911 0.0 101811
18 may, tue
tue1801:00+19nw116541 0.1 101811
04:00+18sw00706 0.1 101811
07:00+21nne126488 0.0 1019141
10:00+25w224599 0.0 1018626
13:00+28w3436100 0.0 10181430
16:00+29nw45305 0.0 10172373
19:00+21s136057 0.0 101781
22:00+18ssw366983 0.2 101899